AAL2245 KMIA-MYNN

Flight info

Callsign AAL2245
Flight time N/A
Altitude 21000
Route KLADA2 RAJAY
Aircraft A320/M-SDE3FGHIRWY/LB1

Departure

Time N/A
Airport Miami International Airport (KMIA)

Arrival

Time 2026-05-04 08:31
Airport Lynden Pindling International Airport (MYNN)
Time Latitude Longitude Altitude Speed Heading
2026-05-04 08:06 25.62558 -79.78515 14615 ft 396 kts 113°
2026-05-04 08:06 25.61602 -79.75646 15234 ft 398 kts 114°
2026-05-04 08:06 25.60639 -79.72756 15812 ft 402 kts 114°
2026-05-04 08:08 25.54894 -79.51270 19597 ft 429 kts 109°
2026-05-04 08:08 25.54072 -79.48074 20092 ft 433 kts 109°
2026-05-04 08:10 25.47238 -79.21953 20997 ft 444 kts 109°
2026-05-04 08:11 25.46379 -79.18673 20998 ft 444 kts 109°
2026-05-04 08:11 25.44659 -79.12117 20999 ft 444 kts 109°
2026-05-04 08:11 25.43799 -79.08839 20995 ft 444 kts 109°
2026-05-04 08:12 25.42938 -79.05558 21002 ft 443 kts 108°
2026-05-04 08:12 25.42094 -79.02339 20945 ft 429 kts 109°
2026-05-04 08:12 25.41283 -78.99253 20760 ft 420 kts 109°
2026-05-04 08:12 25.40467 -78.96166 20495 ft 416 kts 109°
2026-05-04 08:13 25.39654 -78.93102 20232 ft 414 kts 109°
2026-05-04 08:13 25.38845 -78.90053 19974 ft 412 kts 109°
2026-05-04 08:13 25.38041 -78.87023 19716 ft 410 kts 109°
2026-05-04 08:13 25.37243 -78.84004 19461 ft 408 kts 109°
2026-05-04 08:14 25.36450 -78.81004 19214 ft 406 kts 109°
2026-05-04 08:14 25.35657 -78.78016 18892 ft 403 kts 109°
2026-05-04 08:14 25.34867 -78.75051 18544 ft 401 kts 109°
2026-05-04 08:16 25.29492 -78.54861 15941 ft 382 kts 109°
2026-05-04 08:16 25.28743 -78.52058 15584 ft 379 kts 109°
2026-05-04 08:16 25.27999 -78.49273 15229 ft 377 kts 109°
2026-05-04 08:17 25.27420 -78.46457 14879 ft 376 kts 99°
2026-05-04 08:17 25.27298 -78.43581 14530 ft 375 kts 88°
2026-05-04 08:17 25.27581 -78.40730 14185 ft 373 kts 83°
2026-05-04 08:17 25.27911 -78.37895 13841 ft 371 kts 83°
2026-05-04 08:19 25.29574 -78.19510 11345 ft 351 kts 100°
2026-05-04 08:19 25.28696 -78.16126 10872 ft 344 kts 117°
2026-05-04 08:20 25.27556 -78.13819 10523 ft 340 kts 123°
2026-05-04 08:20 25.26368 -78.11576 10174 ft 338 kts 123°
2026-05-04 08:20 25.25186 -78.09338 9822 ft 335 kts 123°
2026-05-04 08:20 25.24019 -78.07124 9440 ft 332 kts 123°
2026-05-04 08:21 25.23234 -78.05638 9185 ft 330 kts 123°
2026-05-04 08:21 25.22082 -78.03456 8809 ft 327 kts 123°
2026-05-04 08:21 25.20954 -78.01322 8442 ft 325 kts 123°
2026-05-04 08:21 25.19812 -77.99162 8061 ft 315 kts 123°
2026-05-04 08:22 25.18750 -77.97140 7704 ft 302 kts 123°
2026-05-04 08:22 25.17715 -77.95171 7346 ft 291 kts 123°
2026-05-04 08:24 25.10999 -77.82523 5142 ft 269 kts 122°
2026-05-04 08:24 25.10053 -77.80739 4835 ft 269 kts 122°
2026-05-04 08:24 25.09118 -77.78974 4611 ft 264 kts 122°
2026-05-04 08:24 25.08197 -77.77239 4388 ft 259 kts 123°
2026-05-04 08:25 25.07296 -77.75549 4172 ft 250 kts 123°
2026-05-04 08:25 25.06424 -77.73916 3976 ft 244 kts 123°
2026-05-04 08:25 25.05576 -77.72326 3782 ft 237 kts 123°
2026-05-04 08:25 25.04752 -77.70776 3594 ft 231 kts 123°
2026-05-04 08:26 25.03953 -77.69261 3402 ft 226 kts 120°
2026-05-04 08:27 25.03541 -77.58466 1855 ft 172 kts 94°
2026-05-04 08:28 25.03551 -77.57202 1649 ft 159 kts 92°
2026-05-04 08:28 25.03557 -77.56014 1432 ft 151 kts 93°
2026-05-04 08:28 25.03562 -77.54889 1261 ft 145 kts 93°
2026-05-04 08:28 25.03567 -77.53785 1062 ft 142 kts 93°
2026-05-04 08:29 25.03572 -77.52699 877 ft 141 kts 95°
2026-05-04 08:29 25.03576 -77.51617 695 ft 143 kts 94°
2026-05-04 08:29 25.03582 -77.50532 489 ft 142 kts 93°
2026-05-04 08:31 25.03685 -77.46019 12 ft 16 kts 43°
2026-05-04 08:33 25.04247 -77.46263 12 ft 22 kts 314°
2026-05-04 08:33 25.04343 -77.46372 13 ft 20 kts 314°
2026-05-04 08:35 25.04930 -77.46896 12 ft 14 kts 66°
2026-05-04 08:35 25.04958 -77.46824 13 ft 8 kts 66°
2026-05-04 08:35 25.04997 -77.46792 12 ft 8 kts 14°
2026-05-04 08:35 25.05018 -77.46759 12 ft 5 kts 84°
2026-05-04 08:37 25.05003 -77.46714 12 ft 0 kts 113°